GW6932 Weather Reports


time (UTC)temp
F
wind
direction
speed
knots
gust
knots
rain 1hr
in
rain 24hr
in
rain mn
in
humidity
%
barometer
mb
20260505230926 82 119 1.7 5.2 0.00 0.00 0.00 70 1007.1
20260505230423 83 311 0.0 4.3 0.00 0.00 0.00 70 1007.1
20260505225919 83 91 0.9 1.7 0.00 0.00 0.00 70 1007.0
20260505225417 83 220 2.6 4.3 0.00 0.00 0.00 69 1007.0
20260505224912 83 92 1.7 6.1 0.00 0.00 0.00 69 1007.1
20260505224410 83 25 0.0 3.5 0.00 0.00 0.00 68 1006.8
20260505223906 83 164 1.7 3.5 0.00 0.00 0.00 68 1006.9
20260505223403 84 163 1.7 5.2 0.00 0.00 0.00 68 1007.0
20260505222859 84 103 1.7 3.5 0.00 0.00 0.00 68 1007.0
20260505222356 84 152 1.7 6.1 0.00 0.00 0.00 67 1006.9
20260505221852 85 240 0.9 1.7 0.00 0.00 0.00 67 1006.9
20260505221349 85 13 0.9 4.3 0.00 0.00 0.00 68 1006.9
20260505220846 84 193 1.7 4.3 0.00 0.00 0.00 68 1006.8
20260505220343 84 205 0.9 6.1 0.00 0.00 0.00 69 1007.2
20260505215841 84 196 3.5 4.3 0.00 0.00 0.00 69 1007.3
20260505215339 84 155 0.9 1.7 0.00 0.00 0.00 70 1007.3
20260505214837 84 247 1.7 3.5 0.00 0.00 0.00 68 1007.4
20260505214334 84 178 0.9 3.5 0.00 0.00 0.00 68 1007.5
20260505213831 84 63 0.0 4.3 0.00 0.00 0.00 68 1007.9
20260505213329 84 281 0.0 5.2 0.00 0.00 0.00 68 1007.5
20260505212824 83 127 0.0 2.6 0.00 0.00 0.00 68 1007.5
20260505212322 84 141 1.7 3.5 0.00 0.00 0.00 66 1007.6
20260505211818 84 122 0.9 3.5 0.00 0.00 0.00 66 1007.7
20260505211316 84 33 1.7 2.6 0.00 0.00 0.00 68 1007.8
20260505210812 84 33 0.0 3.5 0.00 0.00 0.00 68 1007.8
20260505210309 84 83 1.7 4.3 0.00 0.00 0.00 68 1007.7
20260505205806 84 215 1.7 5.2 0.00 0.00 0.00 66 1007.9
20260505205305 85 220 2.6 5.2 0.00 0.00 0.00 65 1007.9
20260505204800 85 250 0.0 4.3 0.00 0.00 0.00 66 1007.9
20260505204259 84 206 1.7 7.0 0.00 0.00 0.00 67 1008.0
20260505203755 85 211 4.3 5.2 0.00 0.00 0.00 66 1008.2
20260505203252 85 275 0.9 4.3 0.00 0.00 0.00 66 1008.2
20260505202749 84 259 0.0 4.3 0.00 0.00 0.00 68 1008.6
20260505202244 84 303 3.5 3.5 0.00 0.00 0.00 68 1008.5
20260505201741 85 182 0.0 5.2 0.00 0.00 0.00 65 1008.5
20260505201239 85 228 1.7 3.5 0.00 0.00 0.00 66 1008.5
20260505200737 84 253 1.7 5.2 0.00 0.00 0.00 69 1008.5
20260505200235 83 194 4.3 4.3 0.00 0.00 0.00 68 1008.5
20260505195729 84 188 7.0 9.6 0.00 0.00 0.00 68 1008.9
20260505195227 84 301 0.0 3.5 0.00 0.00 0.00 69 1008.9
20260505194724 84 189 2.6 3.5 0.00 0.00 0.00 67 1008.9
20260505194220 84 146 0.9 5.2 0.00 0.00 0.00 69 1009.0
20260505193716 84 118 2.6 7.0 0.00 0.00 0.00 69 1008.9
20260505193214 83 194 3.5 5.2 0.00 0.00 0.00 70 1009.1
20260505192712 83 152 2.6 3.5 0.00 0.00 0.00 72 1009.1
20260505192209 82 75 0.9 4.3 0.00 0.00 0.00 73 1009.1
20260505191708 82 102 2.6 5.2 0.00 0.00 0.00 73 1009.4
20260505191205 82 210 2.6 3.5 0.00 0.00 0.00 72 1009.4
20260505190701 82 179 1.7 5.2 0.00 0.00 0.00 72 1009.3
20260505190201 82 178 1.7 4.3 0.00 0.00 0.00 71 1009.0
20260505185658 83 211 1.7 5.2 0.00 0.00 0.00 69 1009.3
20260505185155 83 169 0.0 2.6 0.00 0.00 0.00 71 1009.2
20260505184651 82 108 0.9 2.6 0.00 0.00 0.00 73 1009.4
20260505184148 82 31 0.9 5.2 0.00 0.00 0.00 71 1009.4
20260505183645 82 146 0.9 4.3 0.00 0.00 0.00 71 1009.5
20260505183143 82 323 1.7 5.2 0.00 0.00 0.00 72 1009.6
20260505182638 81 227 1.7 2.6 0.00 0.00 0.00 73 1009.9
20260505182136 81 241 0.0 5.2 0.00 0.00 0.00 72 1009.6
20260505181632 82 142 1.7 4.3 0.00 0.00 0.00 72 1009.7
20260505181130 81 129 0.0 3.5 0.00 0.00 0.00 73 1009.8
20260505180626 81 167 2.6 7.0 0.00 0.00 0.00 73 1009.7
20260505180123 80 245 0.9 5.2 0.00 0.00 0.00 74 1009.5
20260505175619 80 85 2.6 3.5 0.00 0.00 0.00 75 1009.5
20260505175116 80 151 1.7 7.0 0.00 0.00 0.00 74 1009.7
20260505174612 80 76 1.7 3.5 0.00 0.00 0.00 75 1009.7
20260505174108 80 197 2.6 4.3 0.00 0.00 0.00 74 1009.8
20260505173605 80 89 1.7 4.3 0.00 0.00 0.00 76 1009.8
20260505173102 80 32 0.0 4.3 0.00 0.00 0.00 77 1010.2
20260505172600 79 191 0.9 4.3 0.00 0.00 0.00 76 1010.1
20260505172056 80 114 1.7 5.2 0.00 0.00 0.00 75 1010.0
20260505171551 80 199 0.0 2.6 0.00 0.00 0.00 76 1010.1
20260505171048 80 136 1.7 3.5 0.00 0.00 0.00 77 1010.0
20260505170545 80 256 0.0 3.5 0.00 0.00 0.00 76 1010.1
20260505170041 79 186 1.7 4.3 0.00 0.00 0.00 78 1010.0
20260505165537 78 153 1.7 3.5 0.00 0.00 0.00 78 1010.2
20260505165032 78 125 2.6 4.3 0.00 0.00 0.00 79 1010.1
20260505164529 78 187 2.6 3.5 0.00 0.00 0.00 79 1010.1
20260505164026 78 201 4.3 5.2 0.00 0.00 0.00 78 1010.2
20260505163525 78 258 1.7 4.3 0.00 0.00 0.00 77 1010.4
20260505163021 78 91 0.9 3.5 0.00 0.00 0.00 78 1010.3
20260505162515 79 342 0.0 2.6 0.00 0.00 0.00 77 1010.1
20260505162012 78 169 0.0 3.5 0.00 0.00 0.00 78 1010.1
20260505161508 78 209 2.6 4.3 0.00 0.00 0.00 78 1010.0
20260505161006 78 129 2.6 3.5 0.00 0.00 0.00 78 1009.9
20260505160504 78 267 0.0 3.5 0.00 0.00 0.00 79 1010.2
20260505152940 77 254 0.9 2.6 0.00 0.00 0.00 79 1009.9
20260505152437 77 85 1.7 7.0 0.00 0.00 0.00 78 1009.9
20260505151932 77 147 1.7 5.2 0.00 0.00 0.00 79 1009.9
20260505151427 77 121 3.5 5.2 0.00 0.00 0.00 79 1009.9
20260505150925 77 188 1.7 2.6 0.00 0.00 0.00 79 1009.9
20260505150422 77 184 0.0 3.5 0.00 0.00 0.00 79 1009.8
20260505140352 76 309 1.7 3.5 0.00 0.00 0.00 80 1009.4
20260505124805 74 164 0.0 5.2 0.00 0.00 0.00 84 1008.8
20260505124302 73 104 1.7 3.5 0.00 0.00 0.00 85 1009.0
20260505123758 73 99 3.5 3.5 0.00 0.00 0.00 85 1009.2
20260505123255 73 117 0.0 2.6 0.00 0.00 0.00 86 1009.4
20260505122751 72 112 0.9 2.6 0.00 0.00 0.00 86 1009.3
20260505122249 72 87 0.9 1.7 0.00 0.00 0.00 86 1009.5
20260505121745 72 178 0.9 2.6 0.00 0.00 0.00 87 1009.2
20260505121242 72 108 1.7 1.7 0.00 0.00 0.00 87 1009.3
20260505120738 72 140 1.7 2.6 0.00 0.00 0.00 87 1009.4
20260505120234 72 175 1.7 3.5 0.00 0.00 0.00 87 1009.0
20260505115733 72 125 0.0 3.5 0.00 0.00 0.00 87 1009.0
20260505115231 72 200 0.0 2.6 0.00 0.00 0.00 87 1009.1
20260505114728 72 127 0.0 4.3 0.00 0.00 0.00 87 1008.9
20260505114223 71 100 0.9 3.5 0.00 0.00 0.00 87 1009.1
20260505113720 71 187 1.7 2.6 0.00 0.00 0.00 87 1009.3
20260505113217 72 182 1.7 2.6 0.00 0.00 0.00 87 1009.1
20260505112713 72 145 2.6 3.5 0.00 0.00 0.00 87 1009.0
20260505112212 72 187 0.0 4.3 0.00 0.00 0.00 87 1009.3
20260505111711 71 34 0.0 2.6 0.00 0.00 0.00 87 1009.2
20260505111207 71 210 3.5 3.5 0.00 0.00 0.00 87 1008.9
20260505110703 71 109 1.7 3.5 0.00 0.00 0.00 87 1008.9
20260505110201 71 117 0.0 1.7 0.00 0.00 0.00 87 1008.9
20260505102137 71 70 0.9 0.9 0.00 0.00 0.00 87 1009.1
20260505101635 71 221 1.7 1.7 0.00 0.00 0.00 87 1009.0
20260505101131 71 198 1.7 1.7 0.00 0.00 0.00 87 1009.2
20260505100627 71 145 1.7 1.7 0.00 0.00 0.00 87 1009.2
20260505100124 71 72 0.0 3.5 0.00 0.00 0.00 87 1009.2
20260505095620 71 182 0.9 1.7 0.00 0.00 0.00 87 1009.1
20260505095117 71 138 1.7 1.7 0.00 0.00 0.00 87 1009.1
20260505094614 71 123 0.9 3.5 0.00 0.00 0.00 87 1009.0
20260505094110 71 188 1.7 2.6 0.00 0.00 0.00 87 1009.3
20260505093606 70 165 1.7 3.5 0.00 0.00 0.00 87 1009.1
20260505093104 70 193 1.7 1.7 0.00 0.00 0.00 87 1009.3
20260505092601 70 94 0.9 1.7 0.00 0.00 0.00 87 1009.3
20260505092100 70 83 0.0 1.7 0.00 0.00 0.00 87 1009.3
20260505091556 70 190 1.7 2.6 0.00 0.00 0.00 87 1009.5
20260505091054 70 94 0.9 2.6 0.00 0.00 0.00 87 1009.4
20260505090552 70 182 1.7 2.6 0.00 0.00 0.00 87 1009.6
20260505090050 70 157 2.6 2.6 0.00 0.00 0.00 86 1009.3
20260505085547 70 148 0.0 2.6 0.00 0.00 0.00 86 1009.4
20260505085045 70 210 1.7 3.5 0.00 0.00 0.00 86 1009.4
20260505084543 70 133 1.7 1.7 0.00 0.00 0.00 86 1009.3
20260505084041 70 133 1.7 2.6 0.00 0.00 0.00 86 1009.2
20260505083537 70 89 0.0 2.6 0.00 0.00 0.00 85 1009.4
20260505083034 70 168 1.7 1.7 0.00 0.00 0.00 85 1009.6
20260505082530 70 160 0.9 2.6 0.00 0.00 0.00 85 1009.6
20260505082027 70 104 0.0 4.3 0.00 0.00 0.00 84 1009.7
20260505081523 71 203 1.7 2.6 0.00 0.00 0.00 84 1009.6
20260505081021 70 182 2.6 2.6 0.00 0.00 0.00 84 1009.9
20260505080517 70 141 1.7 1.7 0.00 0.00 0.00 84 1009.9
20260505080014 70 94 0.9 2.6 0.00 0.00 0.00 84 1009.8
20260505075509 70 68 1.7 1.7 0.00 0.00 0.00 84 1009.9
20260505075007 70 170 1.7 1.7 0.00 0.00 0.00 84 1009.9
20260505074504 70 137 1.7 2.6 0.00 0.00 0.00 84 1009.9
20260505074001 70 193 0.0 1.7 0.00 0.00 0.00 83 1009.9
20260505073458 70 191 1.7 1.7 0.00 0.00 0.00 83 1010.0
20260505072956 70 113 2.6 2.6 0.00 0.00 0.00 83 1010.0
20260505072452 70 146 1.7 3.5 0.00 0.00 0.00 83 1010.1
20260505071948 70 61 0.9 2.6 0.00 0.00 0.00 83 1010.2
20260505071444 70 76 0.9 1.7 0.00 0.00 0.00 83 1010.1
20260505070942 70 98 0.9 3.5 0.00 0.00 0.00 83 1010.1
20260505070438 70 300 0.0 2.6 0.00 0.00 0.00 83 1010.3
20260505065934 70 144 0.0 1.7 0.00 0.00 0.00 82 1010.0
20260505065431 70 43 0.9 1.7 0.00 0.00 0.00 82 1010.4
20260505064928 70 113 1.7 1.7 0.00 0.00 0.00 82 1010.4
20260505064425 70 97 1.7 2.6 0.00 0.00 0.00 82 1010.3
20260505063923 70 131 1.7 2.6 0.00 0.00 0.00 82 1010.4
20260505063419 70 74 1.7 2.6 0.00 0.00 0.00 82 1010.7
20260505062916 70 105 0.9 1.7 0.00 0.00 0.00 82 1010.8
20260505062413 69 255 0.0 1.7 0.00 0.00 0.00 82 1010.6
20260505061909 69 211 0.9 1.7 0.00 0.00 0.00 82 1010.7
20260505061408 69 165 0.0 1.7 0.00 0.00 0.00 82 1010.8
20260505060905 69 119 1.7 3.5 0.00 0.00 0.00 81 1010.9
20260505060402 70 186 0.0 0.9 0.00 0.00 0.00 81 1010.7
20260505055858 70 158 0.9 1.7 0.00 0.00 0.00 81 1010.6
20260505055354 70 181 1.7 1.7 0.00 0.00 0.00 81 1010.7
20260505054851 70 176 1.7 1.7 0.00 0.00 0.00 80 1010.8
20260505054348 70 111 0.9 2.6 0.00 0.00 0.00 80 1010.7
20260505053847 70 127 0.9 1.7 0.00 0.00 0.00 80 1010.9
20260505053343 70 194 1.7 1.7 0.00 0.00 0.00 79 1011.0
20260505052840 70 128 1.7 1.7 0.00 0.00 0.00 79 1011.1
20260505052337 70 177 1.7 2.6 0.00 0.00 0.00 79 1011.2
20260505051834 71 96 0.9 2.6 0.00 0.00 0.00 78 1011.2
20260505051331 71 138 1.7 2.6 0.00 0.00 0.00 78 1011.3
20260505050829 71 57 0.0 1.7 0.00 0.00 0.00 77 1011.4
20260505050328 71 127 1.7 3.5 0.00 0.00 0.00 77 1011.3
20260505041757 72 186 2.6 5.2 0.00 0.00 0.00 74 1011.1
20260505041255 72 118 1.7 6.1 0.00 0.00 0.00 73 1011.0
20260505040752 72 222 2.6 3.5 0.00 0.00 0.00 73 1011.0
20260505040249 73 136 1.7 4.3 0.00 0.00 0.00 73 1011.4
20260505035746 73 120 0.0 3.5 0.00 0.00 0.00 72 1011.2
20260505035242 73 167 0.9 3.5 0.00 0.00 0.00 73 1011.4
20260505034739 73 148 1.7 5.2 0.00 0.00 0.00 73 1011.2
20260505034236 73 148 1.7 5.2 0.00 0.00 0.00 73 1011.2
20260505033732 73 96 0.0 4.3 0.00 0.00 0.00 73 1011.3
20260505033230 73 200 3.5 5.2 0.00 0.00 0.00 73 1011.7
20260505032728 73 201 4.3 5.2 0.00 0.00 0.00 73 1011.6
20260505032224 73 184 2.6 6.1 0.00 0.00 0.00 73 1011.6
20260505031721 73 173 1.7 5.2 0.00 0.00 0.00 73 1011.5
20260505031218 73 46 1.7 3.5 0.00 0.00 0.00 73 1011.5
20260505030715 73 114 1.7 3.5 0.00 0.00 0.00 72 1011.5
20260505030211 73 204 0.9 5.2 0.00 0.00 0.00 72 1011.5
20260505025707 73 3 0.0 3.5 0.00 0.00 0.00 72 1011.3
20260505025205 73 111 1.7 2.6 0.00 0.00 0.00 72 1011.3
20260505024703 73 15 2.6 7.8 0.00 0.00 0.00 71 1011.3
20260505024159 73 93 1.7 5.2 0.00 0.00 0.00 71 1011.1
20260505023657 73 134 2.6 4.3 0.00 0.00 0.00 71 1011.3
20260505023154 73 162 1.7 3.5 0.00 0.00 0.00 71 1011.2
20260505022652 73 119 3.5 3.5 0.00 0.00 0.00 71 1011.3
20260505022149 73 194 0.9 3.5 0.00 0.00 0.00 71 1011.4
20260505021645 73 182 1.7 4.3 0.00 0.00 0.00 71 1011.3
20260505021142 73 136 1.7 9.6 0.00 0.00 0.00 70 1011.3
20260505020637 73 119 0.9 3.5 0.00 0.00 0.00 70 1011.3
20260505020134 74 127 2.6 3.5 0.00 0.00 0.00 70 1010.9
20260505015631 74 121 1.7 3.5 0.00 0.00 0.00 70 1010.9
20260505015127 74 141 0.0 5.2 0.00 0.00 0.00 70 1011.1
20260505014624 74 128 7.0 8.7 0.00 0.00 0.00 70 1010.9
20260505014121 73 125 3.5 3.5 0.00 0.00 0.00 70 1010.9
20260505013619 73 109 1.7 3.5 0.00 0.00 0.00 70 1011.1
20260505013116 73 135 0.0 2.6 0.00 0.00 0.00 70 1010.8
20260505012614 73 68 0.0 2.6 0.00 0.00 0.00 70 1010.9
20260505012111 73 121 2.6 4.3 0.00 0.00 0.00 70 1010.9
20260505011606 74 119 2.6 5.2 0.00 0.00 0.00 69 1010.9
20260505011104 74 131 0.9 4.3 0.00 0.00 0.00 69 1010.9
20260505010604 74 144 0.9 3.5 0.00 0.00 0.00 68 1010.9
20260505005557 74 120 1.7 4.3 0.00 0.00 0.00 68 1010.8
20260505005055 74 124 0.9 7.8 0.00 0.00 0.00 67 1010.8
20260505004552 75 165 1.7 4.3 0.00 0.00 0.00 66 1010.6
20260505004049 75 125 3.5 4.3 0.00 0.00 0.00 66 1010.6
20260505003546 75 162 0.9 4.3 0.00 0.00 0.00 65 1010.5
20260505003043 76 111 2.6 7.8 0.00 0.00 0.00 65 1010.7
20260505002538 76 99 1.7 3.5 0.00 0.00 0.00 66 1010.7
20260505002037 76 95 0.9 6.1 0.00 0.00 0.00 65 1010.8
20260505001534 76 161 2.6 5.2 0.00 0.00 0.00 65 1010.6
20260505001031 76 122 1.7 4.3 0.00 0.00 0.00 64 1010.7
20260505000529 76 72 0.0 5.2 0.00 0.00 0.00 65 1010.7
20260505000026 76 133 3.5 6.1 0.00 0.00 0.00 64 1010.9
20260504235523 76 137 2.6 3.5 0.00 0.00 0.00 64 1010.8
20260504235019 76 107 2.6 4.3 0.00 0.00 0.00 64 1011.0
20260504234516 77 93 2.6 5.2 0.00 0.00 0.00 63 1010.7
20260504234013 77 131 5.2 7.0 0.00 0.00 0.00 62 1010.7
20260504233508 77 76 1.7 5.2 0.00 0.00 0.00 62 1010.9
20260504233006 78 151 5.2 5.2 0.00 0.00 0.00 61 1010.9
20260504232503 78 140 1.7 5.2 0.00 0.00 0.00 61 1011.1
20260504232000 78 89 5.2 7.8 0.00 0.00 0.00 60 1010.8
20260504231456 78 250 0.9 7.0 0.00 0.00 0.00 61 1011.0